Overview Statistics Trail Chart Weather Telemetry Raw packets
 

This is the latest recevied weather packets stored in our database for station/object W0AKY-13. If no packets are shown the sender has not sent any weather packets the latest 10 day(s).

<< 46 47 48 49 50 51 52 >>
Time Temp. Humidity Pressure Rain* Wind** Luminosity Snow
1788275783 30.56° C 56% 1015.6 hPa 0 mm - 324 W/m² -
1788275482 30.56° C 55% 1015.3 hPa 0 mm - 314 W/m² -
1788275181 30° C 60% 1015.3 hPa 0 mm - 305 W/m² -
1788274880 30.56° C 61% 1015.6 hPa 0 mm - 250 W/m² -
1788274578 30° C 59% 1015.5 hPa 0 mm - 277 W/m² -
1788274278 30° C 58% 1015.3 hPa 0 mm - 262 W/m² -
1788273974 29.44° C 59% 1015.4 hPa 0 mm - 253 W/m² -
1788273669 28.89° C 62% 1015.6 hPa 0 mm - 239 W/m² -
1788273364 27.78° C 65% 1015.4 hPa 0 mm - 228 W/m² -
1788273060 27.22° C 68% 1015.3 hPa 0 mm - 83 W/m² -
1788272756 26.67° C 68% 1015.3 hPa 0 mm - 33 W/m² -
1788272455 26.67° C 69% 1015.3 hPa 0 mm - 32 W/m² -
1788272150 26.67° C 72% 1015.7 hPa 0 mm - 31 W/m² -
1788271845 26.11° C 72% 1015.7 hPa 0 mm - 29 W/m² -
1788271555 25.56° C 72% 1015.5 hPa 0 mm - 29 W/m² -
1788271238 25.56° C 74% 1015.7 hPa 0 mm - 28 W/m² -
1788270937 25° C 76% 1015.5 hPa 0 mm - 28 W/m² -
1788270633 25° C 76% 1015.5 hPa 0 mm - 26 W/m² -
1788270329 24.44° C 78% 1015.5 hPa 0 mm - 25 W/m² -
1788270029 23.89° C 79% 1015.8 hPa 0 mm - 25 W/m² -
1788269728 23.89° C 80% 1015.5 hPa 0 mm - 24 W/m² -
1788269426 23.89° C 82% 1015.7 hPa 0 mm - 24 W/m² -
1788269121 23.33° C 83% 1015.5 hPa 0 mm - 23 W/m² -
1788268821 22.78° C 82% 1015.6 hPa 0 mm - 22 W/m² -
1788268515 22.78° C 83% 1015.7 hPa 0 mm - 21 W/m² -

* Rain latest hour (hover to see other rain measurements)
** Current wind speed in m/s (hover to see current wind gust speed)